Location: Las Vegas
(36.1750°N, 115.1360°W)
Time: 22:58:56
(UTC-07:00)

Amateur Radio Satellites - All Passes

Search period start: 30 September 2014 22:28
Search period end: 01 October 2014 22:28
Location: Las Vegas, 36.1750°N, 115.1360°W

Satellite Date Start Highest point End Downlink Frequencies (MHz)
Time Altitude Azimuth
UOSAT-12 30 Sep 22:41:14 22:43:18 13° 317° (NW) 22:45:23 437.025 FM, 437.400 FM
ZACube-1 30 Sep 22:51:41 22:55:52 38° 262° (W) 23:00:09 437.345 MHz
ISS 30 Sep 23:13:24 23:15:46 18° 331° (NNW) 23:18:08 145.800 FM
PANSAT 30 Sep 23:31:27 23:33:52 16° 196° (SSW) 23:36:16 not established
Saudisat 1A 01 Oct 00:07:40 00:11:19 26° 248° (WSW) 00:14:57 436.775 MHz
RS-15 01 Oct 00:12:58 00:18:38 16° 99° (E) 00:24:13 29.354 - 29.394 USB, Beacon 29.352 USB
KITSAT 1 01 Oct 00:32:33 00:37:59 19° 40° (NE) 00:43:23 435.175 FM
Oscar 19 01 Oct 01:02:29 01:05:05 14° 92° (E) 01:07:41 437.125 CW, 437.150 USB
Oscar 16 01 Oct 01:41:46 01:46:32 37° 98° (E) 01:51:15 437.025 USB, Beacon 2401.1428
AO-27 01 Oct 01:51:34 01:55:07 18° 94° (E) 01:58:39 436.795 MHz FM
AO-Echo 01 Oct 01:52:32 01:56:32 23° 95° (E) 02:00:35 ?
Gurwin Techsat 1B 01 Oct 02:16:15 02:19:14 15° 92° (E) 02:22:11 435.225 FM
RS-15 01 Oct 02:18:06 02:29:11 82° 117° (ESE) 02:40:07 29.354 - 29.394 USB, Beacon 29.352 USB
JAS-1B 01 Oct 02:24:21 02:29:57 53° 101° (ESE) 02:36:06 435.800 - 435.900 CW/SSB
KITSAT 1 01 Oct 02:26:34 02:34:41 80° 62° (ENE) 02:42:44 435.175 FM
Oscar 19 01 Oct 02:39:44 02:44:46 58° 287° (WNW) 02:49:47 437.125 CW, 437.150 USB
TMSAT-1 01 Oct 02:44:09 02:48:06 21° 94° (E) 02:52:01 436.925 FM
ITAMSAT 1 01 Oct 02:51:10 02:56:24 72° 102° (ESE) 03:01:37 435.822 SSB
Uribyol 2 01 Oct 02:52:04 02:57:19 79° 103° (ESE) 03:02:32 436.500 FM
Oscar 16 01 Oct 03:21:39 03:25:38 23° 293° (WNW) 03:29:35 437.025 USB, Beacon 2401.1428
SO-50 01 Oct 03:22:46 03:26:39 24° 50° (NE) 03:30:33 436.795 FM
AO-27 01 Oct 03:29:50 03:34:49 47° 288° (WNW) 03:39:48 436.795 MHz FM
AO-Echo 01 Oct 03:30:44 03:35:19 36° 289° (WNW) 03:40:00 ?
AO-7 01 Oct 03:47:12 03:53:25 23° 95° (E) 03:59:35 29.400 - 29.500 MHz
Gurwin Techsat 1B 01 Oct 03:54:18 03:59:31 58° 287° (WNW) 04:04:42 435.225 FM
OPAL 01 Oct 04:02:57 04:07:38 35° 68° (ENE) 04:12:20 ?
ISS 01 Oct 04:06:46 04:09:31 23° 32° (NNE) 04:12:16 145.800 FM
MaSat-1 01 Oct 04:13:38 04:16:19 15° 102° (ESE) 04:18:58 437.345 MHz
JAS-1B 01 Oct 04:16:30 04:20:17 18° 296° (WNW) 04:24:14 435.800 - 435.900 CW/SSB
TMSAT-1 01 Oct 04:23:10 04:28:08 42° 289° (WNW) 04:33:05 436.925 FM
KITSAT 1 01 Oct 04:24:01 04:29:06 18° 258° (WSW) 04:34:11 435.175 FM
ITAMSAT 1 01 Oct 04:32:57 04:35:14 13° 298° (WNW) 04:37:31 435.822 SSB
RS-15 01 Oct 04:33:38 04:42:47 29° 320° (NW) 04:51:58 29.354 - 29.394 USB, Beacon 29.352 USB
Uribyol 2 01 Oct 04:34:14 04:36:04 12° 299° (WNW) 04:37:54 436.500 FM
Uosat F 01 Oct 04:51:51 04:56:50 58° 101° (E) 05:01:47 435.120 FM
JAS-2 01 Oct 04:59:01 05:03:19 17° 92° (E) 05:07:49 435.800 - 435.900 CW/SSB, 435.910 FM
SO-50 01 Oct 05:02:49 05:07:20 40° 246° (WSW) 05:11:53 436.795 FM
UOSAT-12 01 Oct 05:30:21 05:34:41 34° 53° (NE) 05:38:55 437.025 FM, 437.400 FM
AO-7 01 Oct 05:38:29 05:46:42 68° 291° (WNW) 05:54:54 29.400 - 29.500 MHz
Hamsat 01 Oct 05:40:19 05:43:19 19° 94° (E) 05:46:18 145.90 MHz
OPAL 01 Oct 05:42:14 05:46:30 26° 262° (W) 05:50:47 ?
ISS 01 Oct 05:43:14 05:46:15 33° 227° (SW) 05:49:16 145.800 FM
MaSat-1 01 Oct 05:47:36 05:52:23 55° 296° (WNW) 05:56:59 437.345 MHz
Uosat F 01 Oct 06:32:18 06:35:06 15° 296° (WNW) 06:37:53 435.120 FM
JAS-2 01 Oct 06:41:53 06:48:41 79° 285° (WNW) 06:56:13 435.800 - 435.900 CW/SSB, 435.910 FM
STRAND 1 01 Oct 06:43:00 06:48:05 85° 76° (ENE) 06:53:12 ?
RS-15 01 Oct 06:56:09 07:00:37 13° 356° (N) 07:05:07 29.354 - 29.394 USB, Beacon 29.352 USB
UOSAT-12 01 Oct 07:10:54 07:14:37 24° 249° (WSW) 07:18:16 437.025 FM, 437.400 FM
Hamsat 01 Oct 07:15:39 07:19:17 29° 289° (WNW) 07:22:52 145.90 MHz
AO-7 01 Oct 07:34:27 07:37:57 13° 310° (NW) 07:41:28 29.400 - 29.500 MHz
SO-67 01 Oct 07:46:04 07:49:31 86° 102° (ESE) 07:52:58 435.3500 MHz FM
PCSat 01 Oct 08:05:45 08:09:15 18° 105° (ESE) 08:12:45 145.825 MHz
JAS-2 01 Oct 08:30:00 08:32:52 13° 299° (WNW) 08:35:51 435.800 - 435.900 CW/SSB, 435.910 FM
RS-15 01 Oct 09:11:01 09:19:15 23° 33° (NNE) 09:27:38 29.354 - 29.394 USB, Beacon 29.352 USB
Sapphire 01 Oct 09:21:08 09:26:32 84° 115° (ESE) 09:31:58 437.095 MHz 1200 baud AX-25 AFSK
Oscar 11 01 Oct 09:34:09 09:37:19 20° 95° (E) 09:40:29 145.825 FM, Beacon 2401.500 USB
HO-68 01 Oct 09:42:39 09:49:52 75° 104° (ESE) 09:57:02 435.675 MHz FM
PCSat 01 Oct 09:46:53 09:52:10 54° 300° (WNW) 09:57:29 145.825 MHz
FUNcube-1 01 Oct 09:59:33 10:02:19 16° 92° (E) 10:05:01 145.950 - 145.970 MHz USB
UKube-1 01 Oct 10:02:59 10:07:18 55° 101° (E) 10:11:34 145.840 MHz, 145.915 MHz
ZACube-1 01 Oct 10:43:28 10:47:54 52° 99° (E) 10:52:12 437.345 MHz
Sapphire 01 Oct 11:07:47 11:10:38 14° 313° (NW) 11:13:29 437.095 MHz 1200 baud AX-25 AFSK
Oscar 11 01 Oct 11:09:44 11:13:30 30° 289° (WNW) 11:17:15 145.825 FM, Beacon 2401.500 USB
RS-15 01 Oct 11:22:39 11:33:51 74° 59° (ENE) 11:45:31 29.354 - 29.394 USB, Beacon 29.352 USB
HO-68 01 Oct 11:31:57 11:36:47 20° 301° (WNW) 11:41:38 435.675 MHz FM
FUNcube-1 01 Oct 11:34:37 11:38:52 40° 288° (WNW) 11:43:00 145.950 - 145.970 MHz USB
UKube-1 01 Oct 11:41:17 11:42:58 12° 296° (WNW) 11:44:39 145.840 MHz, 145.915 MHz
Oscar 19 01 Oct 12:16:48 12:20:04 17° 65° (ENE) 12:23:21 437.125 CW, 437.150 USB
ZACube-1 01 Oct 12:21:35 12:23:47 14° 295° (WNW) 12:25:58 437.345 MHz
Saudisat 1A 01 Oct 12:34:00 12:36:00 13° 108° (ESE) 12:38:01 436.775 MHz
Oscar 16 01 Oct 12:56:03 13:00:54 42° 71° (ENE) 13:05:47 437.025 USB, Beacon 2401.1428
AO-Echo 01 Oct 13:03:45 13:07:14 21° 67° (ENE) 13:10:45 ?
JAS-1B 01 Oct 13:06:28 13:13:29 40° 70° (ENE) 13:19:28 435.800 - 435.900 CW/SSB
AO-27 01 Oct 13:07:16 13:11:11 22° 66° (ENE) 13:15:06 436.795 MHz FM
Gurwin Techsat 1B 01 Oct 13:34:43 13:38:25 20° 65° (ENE) 13:42:07 435.225 FM
RS-15 01 Oct 13:36:27 13:45:11 27° 257° (WSW) 13:54:16 29.354 - 29.394 USB, Beacon 29.352 USB
Oscar 19 01 Oct 13:53:53 13:58:56 53° 260° (W) 14:04:02 437.125 CW, 437.150 USB
TMSAT-1 01 Oct 14:02:22 14:06:40 26° 68° (ENE) 14:10:58 436.925 FM
ITAMSAT 1 01 Oct 14:06:32 14:11:41 83° 76° (ENE) 14:16:54 435.822 SSB
Uribyol 2 01 Oct 14:07:16 14:12:26 90° 79° (E) 14:17:40 436.500 FM
Saudisat 1A 01 Oct 14:10:48 14:15:05 53° 303° (WNW) 14:19:25 436.775 MHz
Oscar 10/S400 01 Oct 14:32:57 14:51:52 40° 151° (SSE) 15:13:04 145.825 - 145.975 CW/USB, Beacon 145.810 USB
Oscar 16 01 Oct 14:36:37 14:40:23 20° 266° (W) 14:44:10 437.025 USB, Beacon 2401.1428
AO-Echo 01 Oct 14:41:33 14:45:47 34° 262° (W) 14:50:03 ?
AO-7 01 Oct 14:43:44 14:50:17 27° 59° (ENE) 14:56:49 29.400 - 29.500 MHz
AO-27 01 Oct 14:45:35 14:50:24 40° 261° (W) 14:55:16 436.795 MHz FM
JAS-1B 01 Oct 14:57:07 15:04:02 33° 261° (W) 15:10:01 435.800 - 435.900 CW/SSB
KITSAT 1 01 Oct 15:01:47 15:05:07 13° 100° (E) 15:08:26 435.175 FM
Gurwin Techsat 1B 01 Oct 15:12:54 15:17:59 47° 261° (W) 15:23:07 435.225 FM
TMSAT-1 01 Oct 15:41:36 15:46:23 35° 263° (W) 15:51:12 436.925 FM
MaSat-1 01 Oct 15:42:19 15:45:09 31° 253° (WSW) 15:47:39 437.345 MHz
Uosat F 01 Oct 16:02:29 16:07:23 60° 74° (ENE) 16:12:19 435.120 FM
OPAL 01 Oct 16:19:15 16:19:32 10° 92° (E) 16:19:48 ?
Hamsat 01 Oct 16:33:06 16:34:18 11° 65° (ENE) 16:35:30 145.90 MHz
AO-7 01 Oct 16:34:13 16:42:26 65° 256° (WSW) 16:50:40 29.400 - 29.500 MHz
KITSAT 1 01 Oct 16:51:11 16:59:15 82° 116° (ESE) 17:07:22 435.175 FM
JAS-2 01 Oct 16:53:20 16:57:44 29° 68° (ENE) 17:02:19 435.800 - 435.900 CW/SSB, 435.910 FM
PCSat 01 Oct 16:57:47 16:58:19 10° 43° (NE) 16:58:51 145.825 MHz
SO-50 01 Oct 17:38:12 17:39:26 11° 107° (ESE) 17:40:40 436.795 FM
Uosat F 01 Oct 17:44:18 17:46:31 13° 268° (W) 17:48:44 435.120 FM
OPAL 01 Oct 17:53:50 17:58:55 76° 287° (WNW) 18:03:55 ?
Hamsat 01 Oct 18:05:27 18:09:43 59° 260° (W) 18:13:59 145.90 MHz
PANSAT 01 Oct 18:09:17 18:09:42 10° 159° (SSE) 18:10:06 not established
Sapphire 01 Oct 18:12:02 18:17:05 38° 57° (ENE) 18:22:05 437.095 MHz 1200 baud AX-25 AFSK
SO-67 01 Oct 18:17:12 18:19:34 18° 71° (ENE) 18:21:56 435.3500 MHz FM
PCSat 01 Oct 18:37:20 18:42:45 68° 62° (ENE) 18:48:07 145.825 MHz
JAS-2 01 Oct 18:38:29 18:42:50 27° 265° (W) 18:47:19 435.800 - 435.900 CW/SSB, 435.910 FM
KITSAT 1 01 Oct 18:49:22 18:55:33 23° 316° (NW) 19:01:46 435.175 FM
STRAND 1 01 Oct 18:56:36 19:01:19 35° 98° (E) 19:06:00 ?
SO-50 01 Oct 19:14:56 19:19:21 63° 302° (WNW) 19:23:54 436.795 FM
UOSAT-12 01 Oct 19:40:09 19:43:18 18° 109° (ESE) 19:46:30 437.025 FM, 437.400 FM
PANSAT 01 Oct 19:46:13 19:49:14 22° 171° (S) 19:52:15 not established
SO-67 01 Oct 19:49:47 19:52:25 20° 265° (W) 19:55:03 435.3500 MHz FM
Sapphire 01 Oct 19:55:50 20:00:16 26° 253° (WSW) 20:04:42 437.095 MHz 1200 baud AX-25 AFSK
HO-68 01 Oct 20:08:22 20:14:58 43° 67° (ENE) 20:21:36 435.675 MHz FM
PCSat 01 Oct 20:22:56 20:25:30 14° 257° (WSW) 20:28:04 145.825 MHz
Oscar 11 01 Oct 20:28:13 20:30:00 12° 65° (ENE) 20:31:47 145.825 FM, Beacon 2401.500 USB
STRAND 1 01 Oct 20:36:11 20:40:17 24° 293° (WNW) 20:44:22 ?
ISS 01 Oct 20:47:00 20:49:51 27° 131° (SE) 20:52:43 145.800 FM
FUNcube-1 01 Oct 20:55:38 20:56:21 10° 63° (ENE) 20:57:03 145.950 - 145.970 MHz USB
UKube-1 01 Oct 20:56:03 20:59:57 34° 71° (ENE) 21:03:52 145.840 MHz, 145.915 MHz
UOSAT-12 01 Oct 21:18:42 21:23:06 42° 305° (NW) 21:27:35 437.025 FM, 437.400 FM
PANSAT 01 Oct 21:25:43 21:28:56 25° 184° (S) 21:32:08 not established
ZACube-1 01 Oct 21:37:19 21:41:18 31° 71° (ENE) 21:45:20 437.345 MHz
HO-68 01 Oct 21:56:26 22:02:41 33° 263° (W) 22:09:00 435.675 MHz FM
Oscar 11 01 Oct 22:01:25 22:05:41 53° 260° (W) 22:09:58 145.825 FM, Beacon 2401.500 USB
